Tracking 28790 objects as of 19-Apr-2024
HD Live streaming from Space Station
objects crossing your sky now

SL-8 R/B

Track SL-8 R/B now!
10-day predictions


NORAD ID: 24773
Int'l Code: 1997-017B
Perigee: 975.4 km
Apogee: 1,010.7 km
Inclination: 82.9 °
Period: 104.8 minutes
Semi major axis: 7364 km
RCS: 5.5844 m2 (large)
Launch date: April 17, 1997
Source: Commonwealth of Independent States (former USSR) (CIS)
Launch site: PLESETSK MISSILE AND SPACE COMPLEX (PKMTR)

Note: This is a ROCKET BODY
Your satellite tracking list
Your tracking list is empty




NASA's NSSDC Master Catalog

Two Line Element Set (TLE):
1 24773U 97017B   24109.63321528  .00000232  00000-0  23112-3 0  9992
2 24773  82.9204 322.2273 0023993 192.4013 221.7590 13.73811029353492
Source of the keplerian elements: AFSPC